Regional Weather Roundup
Issued by NWS

Home | Current Version | Previous Version | Text Only | Print | Product List | Glossary On
Versions: 1 2 3 4 5 6 7 8 9 10 11 12 13 14 15 16 17 18 19 20 21 22 23 24 25 26 27 28 29 30 31 32 33 34 35 36 37 38 39 40 41 42 43 44 45 46 47 48 49 50
000
ASUS43 KDMX 290807
RWRIA

WEATHER ROUNDUP FOR IOWA
NATIONAL WEATHER SERVICE DES MOINES IA
300 AM CDT SAT AUG 29 2015

NOTE: "FAIR" INDICATES FEW OR NO CLOUDS BELOW 12,000 FEET WITH NO
SIGNIFICANT WEATHER AND/OR OBSTRUCTIONS TO VISIBILITY.

* - THESE STATIONS ARE NOT NWS STATIONS...THUS NOT UNDER NWS
QUALITY CONTROL.  THEY ALSO DO NOT REPORT WEATHER SUCH
AS PRECIPITATION OR FOG.

IAZ001>003-012>014-020>022-031>034-043>046-290900-
   NORTHWEST IOWA

CITY           SKY/WX    TMP DP  RH WIND       PRES   REMARKS
CARROLL *      CLOUDY    59  59 100 N10G16    29.98R
CHEROKEE *     CLOUDY    59  59 100 N3        30.01R
DENISON *      CLOUDY    59  59 100 N9        29.97S
LE MARS *      CLOUDY    61  59  94 N5        30.03S
ORANGE CITY *  CLOUDY    59  57  94 N6        30.02S
SHELDON *      MOCLDY    54  54 100 N6        30.01S
SIOUX CITY     CLOUDY    62  57  83 NE8       30.01S
SPENCER        CLOUDY    59  55  87 NE10      30.01S
STORM LAKE *   CLOUDY    57  57 100 N10       30.01R FOG
$$

IAZ055>058-069>071-079>083-090>094-290900-
   SOUTHWEST IOWA

CITY           SKY/WX    TMP DP  RH WIND       PRES   REMARKS
ATLANTIC *     CLOUDY    63  63 100 N10       29.96S
AUDUBON *      CLOUDY    61  57  88 N9        29.98R FOG
CLARINDA *     CLOUDY    66  66 100 NW6G12    29.96R FOG
COUNCIL BLFS * CLOUDY    61  61 100 N10       29.97S FOG
CRESTON *      FOG       66  66 100 N7G16     29.95R VSB 1/4
HARLAN  *      CLOUDY    61 N/A N/A N7G14     30.00S
LAMONI         CLOUDY    70  68  93 S5        29.93R
RED OAK *      CLOUDY    64  64 100 N9        29.96R FOG
SHENANDOAH *   CLOUDY    64  64 100 NW7       29.96R FOG
$$

IAZ047>049-059>061-072>074-084-290900-
   CENTRAL IOWA

CITY           SKY/WX    TMP DP  RH WIND       PRES   REMARKS
AMES           LGT RAIN  63  62  97 N10       29.93R FOG
ANKENY *       CLOUDY    66  66 100 NW9       29.92R FOG
CHARITON *     CLOUDY    70  68  94 SW8       29.92S
DES MOINES     DRZL/FOG  66  64  93 NW12      29.92R VSB 1/2
GRINNELL*      CLOUDY    68  66  94 CALM      29.92S
KNOXVILLE *    PTCLDY    68  66  94 SW5       29.91R
MARSHALLTOWN   CLOUDY    66  65  96 N7        29.92R FOG
PELLA *        PTCLDY    68  68 100 SW3       29.92S
PERRY *        CLOUDY    63  61  94 N8        29.96R FOG
$$

IAZ004>006-015-016-023>025-035-036-290900-
   NORTH CENTRAL IOWA

CITY           SKY/WX    TMP DP  RH WIND       PRES   REMARKS
ALGONA *       CLOUDY    59  57  94 VRB7      29.99S
CLARION *      CLOUDY    61  59  94 N9        29.97S FOG
ESTHERVILLE    CLOUDY    57  56  96 N7        30.01S FOG
FORT DODGE *   CLOUDY    61  57  88 N7        29.98S
MASON CITY     CLOUDY    60  59  96 N9        29.99S FOG
FOREST CITY *  CLOUDY    59  59 100 N7        29.99S
IOWA FALLS *   CLOUDY    63  63 100 N7        29.96R FOG
$$

IAZ007>011-017>019-026>030-037>042-050>054-066-290900-
   NORTHEAST IOWA

CITY           SKY/WX    TMP DP  RH WIND       PRES   REMARKS
CEDAR RAPIDS   CLOUDY    65  65 100 S8        29.92S
CHARLES CITY * CLOUDY    61  61 100 NE7       29.97S FOG
CLINTON *      CLOUDY    64  63  94 SE14G20   29.98F
DECORAH *      CLOUDY    61  61 100 NE5       29.97R
DUBUQUE        LGT RAIN  64  63  96 S18G24    29.95S FOG
MONTICELLO *   CLOUDY    66  64  94 S7G14     29.94R
OELWEIN *        N/A     64  64 100 NE3       29.95S FOG
WATERLOO       LGT RAIN  65  64  97 NE3       29.93R FOG
$$

IAZ064-065-067-068-078-290900-
   EAST CENTRAL IOWA

CITY           SKY/WX    TMP DP  RH WIND       PRES   REMARKS
DAVENPORT      LGT RAIN  65  63  93 SE10      29.96F
IOWA CITY      CLOUDY    66  66 100 SE7       29.93F
MT. PLEASANT * CLOUDY    70  61  73 S10       29.94F
MUSCATINE *    CLOUDY    68  63  83 S7        29.94F
QUAD CITIES    CLOUDY    67  62  84 SE9       29.95F
$$

IAZ062-063-075>077-085>089-095>099-290900-
   SOUTHEAST IOWA

CITY           SKY/WX    TMP DP  RH WIND       PRES   REMARKS
BURLINGTON     CLOUDY    70  64  81 S12       29.95F
FAIRFIELD *    CLOUDY    70  63  78 S8        29.93F
FORT MADISON * CLOUDY    68  64  88 S10       29.96F
KEOKUK *       CLOUDY    72  63  73 S8        29.95F
OSKALOOSA *    CLOUDY    66  64  94 S7        29.92S
CENTERVILLE *  CLOUDY    68  66  94 S5        29.94F
OTTUMWA        CLOUDY    68  66  93 S9        29.91S
WASHINGTON *     N/A    N/A N/A N/A MISG        N/A
$$

ABBREVIATIONS USED IN REMARKS
   TC - TEMPERATURES IN CELSIUS
  WCI - WIND CHILL INDEX
   HX - HEAT INDEX
  VSB - VISIBILITY
$$




USA.gov is the U.S. government's official web portal to all federal, state and local government web resources and services.